Powrót do katalogu

GGSE 2

AktywnyNawigacjaLEO
NORAD 1244·PAYLOAD·🇺🇸 United States

Wystrzelony Mar 9, 1965 z Vandenberg Space Force Base

Loading…

Następne Przeloty (najbliższe 24 godziny)

TLE

ŚwieżeSource: Space-Track

Epoka: Sep 14, 2026, 06:17 UTC

1 01244U 65016B   26257.26212494  .00000024  00000-0  55346-4 0  9994
2 01244  70.0821 356.5680 0022462 325.6335  34.3318 13.96172421130492

Śledź GGSE 2 w czasie rzeczywistym z AllMySat

Download on the App Store